ZK-1A R/B, 61909

Orbit data source: Space-Track

ZK-1A R/B, 61909 is space debris in LEO originally from a launch on Mon, 11 Nov 2024 UTC launched from the Jiuquan Satellite Launch Center, China (JSC). Debris objects in space refer to the collection of defunct objects orbiting the Earth. Examples of debris include non-operational satellites, rocket bodies, and fragments generated from explosions, collisions, or faulty payload assembly.

Loading next visibility...
ZK-1A R/B details
Identifier
61909, 2024-205R
Orbit
LEO
Last TLE update1 day ago
Origin
Flag of CNCASC (CN / PRC)
ManufacturerCAS
MissionSpacecraft
Bus & MotorUnknown
Mass500 kg wet, 500 kg dry
Launch date (UTC)
2024-11-11 (1 month ago)
Launch vehicleUnknown
Launch site
Jiuquan Satellite Launch Center, China (JSC)
Object type
Payload
Rocket body
Debris
Shape & HBRUnknown
Radar Cross SectionLarge (>1 m²)

Expand to show TLE details & history

TLE from 1 day ago
0 ZK-1A R/B
1 61909U 24205R   24347.82255468  .00072766  35512-5  65539-3 0  9998
2 61909  97.4641  61.2084 0157652 277.4745  80.8620 15.53893122  4918
Epoch: 2024-12-12T19:44Z
Definitive object data (Epoch: 2024-12-12T19:44:28.724Z)
Latitude-0.00011°
Longitude43.09136°
Altitude393.169 km
Speed7.683 km/s
True Right ascension04h 04m 50s
True Declination0° 00' 00"
Sunlit
Object was in full shadow at TLE epoch
Visualization TLE readout
Latitude-63.65773°
Longitude59.47449°
Altitude330.164 km
Speed7.765 km/s
Apparent Right ascension07h 07m 07s
Apparent Declination-54° 05' 49"
Sunlit
Object is in daylight
Visualization observer readout
Local Sidereal Time20:16:16
Azimuth146.372° SSE
Elevation-71.661°
Doppler factor1
Orbital elements
Apogee altitude509.189 km
Perigee altitude295.399 km
Semi-major axis6,780.431 km
Eccentricity0.0157652
Inclination97.4641°
RAAN61.2084°
Arg. of periapsis277.4745°
True anomaly82.65094°
Mean anomaly80.862°
Eccentric anomaly81.75595°
Mean motion3.88738 °/min
BSTAR0.00065539
Orbital period92.61 mins
Loading maneuver chart data...
Loading historical data...
Loading historical data...
Loading historical data...
Loading historical data...
Loading historical data...
Loading historical data...
Loading historical data...

ZK-1A R/B Visibility forecast

Observer location: undefined°, undefined

Span
Click to sort rows by Start time (UTC) header in descending order
Start Az.
Max El. time (UTC)
Max El. Az.
Max El.
End time (UTC)
End Az.
5 mins2024-12-14 04:20:29.187Z114.365° SE2024-12-14 04:22:29.187Z78.528° E17.913°2024-12-14 04:25:29.187Z21.891° NNE
4 mins2024-12-14 18:40:29.187Z333.529° NNW2024-12-14 18:42:29.187Z285.786° WNW23.221°2024-12-14 18:44:29.187Z241.227° WSW
|